Location: Hermaringen
(48.5952°N, 10.2585°E)
Time: 11:14:45
(UTC+00:00)

Courier 1B - Pass Details

Date: 21 February 2026
Orbit: 962 x 1208 km, 28.3° (Epoch: 7 March)

Event Time Altitude Azimuth Distance (km) Brightness Sun altitude
Rises 18:07:15 0° 218° (SW) 3,825 11.2 -13.5°
Reaches altitude 10° 18:11:52 10° 191° (S) 2,933 10.1 -14.2°
Maximum altitude 18:14:40 13° 168° (SSE) 2,781 9.7 -14.7°
Drops below altitude 10° 18:17:31 10° 145° (SE) 3,007 9.7 -15.2°
Enters shadow 18:18:44 - 137° (SE) 3,205 9.8 -15.4°
Sets 18:22:23 0° 119° (ESE) 4,024 - -16.0°
